Terug naar catalogus

STARLINK-11446

ActiefCommunicatieVLEO
NORAD 62416·PAYLOAD·🇺🇸 United States

Gelanceerd Dec 23, 2024 vanaf Cape Canaveral Space Force Station

Loading…

Volgende Passages (komende 24 uur)

TLE

VersSource: CelesTrak SupGP

Epoch: Sep 14, 2026, 22:13 UTC

1 62416C 24249H   26257.92618056 -.00204150  00000+0 -15878-2 0  2570
2 62416  43.0004 106.5630 0001372 272.0672 227.4962 15.70908143    13

Volg STARLINK-11446 in realtime met AllMySat

Download on the App Store